Regional Weather Roundup
Issued by NWS

Home | Current Version | Previous Version | Text Only | Print | Product List | Glossary Off
Versions: 1 2 3 4 5 6 7 8 9 10 11 12 13 14 15 16 17 18 19 20 21 22 23 24 25 26 27 28 29 30 31 32 33 34 35 36 37 38 39 40 41 42 43 44 45 46 47 48 49 50

000
ASUS45 KPSR 021410
RWRAZ

ARIZONA HOURLY REGIONAL WEATHER ROUNDUP
NATIONAL WEATHER SERVICE PHOENIX AZ
700 AM MST THU JUL 02 2015

NOTE: FAIR INDICATES FEW OR NO CLOUDS BELOW 12,000 FEET WITH NO
SIGNIFICANT WEATHER AND/OR OBSTRUCTIONS TO VISIBILITY.

AZZ001>003-036-021500-
NORTHWEST ARIZONA

CITY           SKY/WX    TMP DP  RH WIND       PRES   REMARKS
BULLHEAD CITY  PTSUNNY   88  59  37 SE6       29.90S
KINGMAN        PTSUNNY   77  62  59 CALM      30.08R
$$

AZZ004>008-015-016-018-021500-
NORTH CENTRAL ARIZONA

CITY           SKY/WX    TMP DP  RH WIND       PRES   REMARKS
GRAND CANYON     N/A    N/A N/A N/A MISG      30.30R
WILLIAMS       MOSUNNY   64  55  72 S5        30.36S
PRESCOTT       PTSUNNY   72  60  66 W3        30.18R
FLAGSTAFF      MOSUNNY   61  58  90 CALM      30.32R
PAYSON         SUNNY     72  57  60 CALM      30.19S
PAGE           PTSUNNY   81  55  40 SW5       30.10R
$$

AZZ009>014-017-021500-
NORTHEAST ARIZONA

CITY           SKY/WX    TMP DP  RH WIND       PRES   REMARKS
WINSLOW        PTSUNNY   69  61  75 SE5       30.15S
SAINT JOHNS    PTSUNNY   65  58  78 CALM      30.21S
WINDOW ROCK    PTSUNNY   66  53  63 S3        30.29S
SHOW LOW       MOSUNNY   63  52  67 CALM      30.27S
$$

AZZ023-021500-
GREATER PHOENIX AREA

CITY           SKY/WX    TMP DP  RH WIND       PRES   REMARKS
PHOENIX        MOSUNNY   89  57  33 W12       29.90R
BUCKEYE        SUNNY     84  59  42 W3        29.92R
GLENDALE       MOSUNNY   88  59  37 S6        29.92R
LUKE AFB       SUNNY     88  59  37 S7        29.90R
DEER VALLEY    SUNNY     85  58  39 S3        29.92R
SCOTTSDALE     SUNNY     86  57  37 CALM      29.94S
MESA-FALCON    MOSUNNY   86  57  37 W6        29.93R
MESA-GATEWAY   MOSUNNY   84  61  45 CALM      29.95R
CHANDLER       MOSUNNY   84  61  45 VRB5      29.93R
$$

AZZ027-028-021500-
SOUTHWEST MARICOPA COUNTY AND PINAL COUNTY

CITY           SKY/WX    TMP DP  RH WIND       PRES   REMARKS
CASA GRANDE    SUNNY     82  61  47 CALM      29.93S
GILA BEND      FAIR      86  61  43 SW7       29.90S
$$

AZZ503-504-507>509-021500-
SOUTHEAST ARIZONA

CITY           SKY/WX    TMP DP  RH WIND       PRES   REMARKS
TUCSON         SUNNY     77  65  66 S5        30.04R
DAVIS-MONTHAN  SUNNY     77  65  67 S3        30.02S
RYAN FIELD     SUNNY     75  68  78 CALM      30.03S
NOGALES        SUNNY     69  62  78 CALM      30.11R
SIERRA VISTA   SUNNY     73  60  62 W12       30.16S
DOUGLAS        SUNNY     76  60  57 NW10      30.11R
SAFFORD        SUNNY     82  59  45 NW14      30.00R
$$

AZZ020-021-025-026-031-021500-
SOUTHWEST ARIZONA

CITY           SKY/WX    TMP DP  RH WIND       PRES   REMARKS
YUMA           MOSUNNY   83  64  52 S3        29.88S
$$

CAZ031-033-041-043-047-048-061-021500-
SOUTHERN CALIFORNIA

CITY           SKY/WX    TMP DP  RH WIND       PRES   REMARKS
DOWNTOWN L.A.  MOSUNNY   71  62  73 VRB3      29.97R
L.A. AIRPORT   PTSUNNY   66  63  90 W10       29.98R
SAN DIEGO      CLOUDY    72  64  78 W5        30.00R FOG
BURBANK        MOSUNNY   74  58  57 CALM      29.98R
ONTARIO        PTSUNNY   74  60  61 CALM      29.98R
RIVERSIDE      PTSUNNY   74  61  63 CALM      29.98R
PALM SPRINGS   PTSUNNY   87  58  37 NW8       29.91R
EL CENTRO NAS  MOSUNNY   81  67  62 S6        29.88R
IMPERIAL       SUNNY     81  71  71 S3        29.86R
BLYTHE         SUNNY     82  67  60 S6        29.88S
NEEDLES        PTSUNNY   90  59  35 SW9       29.91R
$$

NVZ020-UTZ003-021500-
SOUTHERN NEVADA-UTAH

CITY           SKY/WX    TMP DP  RH WIND       PRES   REMARKS
LAS VEGAS      CLOUDY    84  69  60 S12       29.93F
SALT LAKE CITY MOSUNNY   80  53  39 S7        30.05R
$$

NMZ009-TXZ055-021500-
NEW MEXICO-WEST TEXAS

CITY           SKY/WX    TMP DP  RH WIND       PRES   REMARKS
ALBUQUERQUE    PTSUNNY   74  55  51 CALM      30.16S
EL PASO        MOSUNNY   80  51  36 S5        30.01R
$$


........................KEY........................
SKY/WX - SKY CONDITION/WEATHER
TMP    - TEMPERATURE IN FAHRENHEIT
DP     - DEW POINT IN FAHRENHEIT
RH     - RELATIVE HUMIDITY IN PERCENT
WIND   - DIRECTION AND SPEED IN MILES PER HOUR (MPH)
VRB    - VARIABLE WIND DIRECTION
PRES   - MEAN SEA LEVEL PRESSURE IN INCHES OF MERCURY
         F - FALLING PRESSURE   R - RISING PRESSURE
         S - STEADY PRESSURE
VSB    - VISIBILITY IN MILES
HX     - HEAT INDEX IN FAHRENHEIT
WCI    - WIND CHILL INDEX IN FAHRENHEIT
TC     - TEMPERATURE IN CELSIUS WHICH IS ALSO KNOWN AS
         TEMPERATURE IN CENTIGRADE
AFB    - AIR FORCE BASE
         LUKE AFB IS LUKE AIR FORCE BASE
         DAVIS-MONTHAN IS DAVIS-MONTHAN AIR FORCE BASE
NAS    - NAVAL AIR STATION
         EL CENTRO NAS IS EL CENTRO NAVAL AIR STATION
N/A    - NOT AVAILABLE




USA.gov is the U.S. government's official web portal to all federal, state and local government web resources and services.